www.pogodaiklimat.ru

Погода и климат >> Архив погоды >> Хорватия >> Загреб аэропорт


ПОГОДА в Загреб аэропорту

  • Прогноз погоды в Загреб аэропорту
  • Монитор погоды в Загреб аэропорту

АРХИВ ПОГОДЫ в Загреб аэропорту

Время (UTC), дата Ветер
(напр.,м/с)
 
Видим.   Явления Облачность Т
(С)
Тd
(С)
f
(%)
Тe
(С)
Тes
(С)
Комфортность P
(гПа)
Po
(гПа)
Тmin
(С)
Tmax
(С)
R
(мм)
R24
(мм)
S
(см)
06 12.08 З 1 30 км ясно +21.6 +19.0 85 +26 +30 душно 1013.9 1001.6 +18.2
09 12.08 З 1 30 км ясно +28.3 +20.1 61 +35 +50 очень
душно
1013.5 1001.5
12 12.08 ЮЗ 1 30 км ясно +33.0 +20.9 49 +40 +58 опасность
солнечного
удара
1012.0 1000.2
15 12.08 штиль 0 40 км ясно +35.0 +21.3 45 +43 +50 опасность
перегрева
1010.2 998.5
18 12.08 штиль 0 40 км 1/0
[Ac trans]
+30.8 +20.5 54 +38 +38 очень
душно
1009.6 997.7 +35.2
21 12.08 С 2 30 км 1/0
[Ci fib]
+25.7 +21.1 76 +32 +32 очень
душно
1010.6 998.5
00 13.08 ЮЗ 2 30 км ясно +22.7 +20.8 89 +30 +30 очень
душно
1010.5 998.3
03 13.08 В 4 30 км 1/0
[Ac trans]
+22.6 +19.8 84 +29 +29 очень
душно
1011.2 999.0
06 13.08 СВ 4 40 км в посл. час дождь 9/0
[Ac As]
+21.5 +16.3 72 +25 +26 комфорт 1013.6 1001.3 +21.2 0.0
09 13.08 СВ 5 40 км {дождь} 10/8 1000 м
[Sc Ac As]
+23.0 +15.8 64 +27 +28 душно 1015.4 1003.1
12 13.08 СВ 5 50 км {дождь} 9/9 1500 м
[Sc]
+25.2 +15.3 54 +28 +29 жарко 1014.9 1002.7 0.0
15 13.08 С 5 50 км 8/4 1260 м
[Sc Ac As]
+25.5 +15.5 54 +29 +29 душно 1013.6 1001.4
18 13.08 СВ 3 40 км 10/10 1000 м
[Sc]
+22.9 +14.3 58 +26 +26 жарко 1013.7 1001.4 +26.3 0.0
21 13.08 С 2 40 км 10/10 1000 м
[Sc]
+21.5 +15.3 68 +25 +25 комфорт 1013.0 1000.7
00 14.08 СВ 6 12 км слаб. ливневой дождь 10/4 450 м
[Cu med, cong Ac As]
+17.6 +15.2 86 +17 +17 1014.3 1001.8 3
03 14.08 В 2 6000 м дождь {гроза, ливн. осадки} 10/1 300 м
[Frnb As op]
+15.4 +13.9 91 +15 +15 1015.3 1002.7
06 14.08 С 2 40 км {гроза, ливн. осадки} 10/10 900 м
[Sc]
+16.3 +14.2 87 +16 +16 1016.3 1003.7 +15.3 20
09 14.08 ЮВ 1 40 км 9/9 600 м
[Cu Sc]
+18.5 +14.2 76 +20 +22 1016.9 1004.4
12 14.08 В 1 40 км 6/6 1050 м
[Cu Sc]
+21.5 +15.0 66 +25 +32 комфорт 1016.4 1004.0
15 14.08 СВ 3 40 км 8/5 1500 м
[Cu Sc Ac trans]
+22.8 +12.5 52 +26 +27 жарко 1016.1 1003.7
18 14.08 З 1 40 км 9/1 1500 м
[Sc Ac As]
+20.6 +15.2 71 +25 +25 комфорт 1016.6 1004.2 +23.4
21 14.08 З 1 30 км 5/0
[Ac trans Ci sp]
+18.4 +15.7 84 +20 +20 1017.7 1005.2
00 15.08 ЮЗ 2 20 км местами туман поземный 4/0
[Ci fib]
+14.8 +13.4 91 +14 +14 1017.9 1005.2
03 15.08 ЮЗ 1 20 км ясно +12.9 +11.7 92 +13 +13 1017.6 1004.8
06 15.08 З 1 50 км ясно +15.5 +14.3 93 +16 +19 1018.0 1005.3 +12.2
09 15.08 СВ 1 50 км 1/1 600 м
[Cu hum]
+22.5 +12.6 54 +25 +39 комфорт 1017.0 1004.6
12 15.08 С 1 50 км 1/1 1500 м
[Cu med, cong]
+23.3 +11.4 47 +26 +41 жарко 1015.7 1003.4
15 15.08 ЮЗ 2 50 км 5/1 1500 м
[Cu hum Ci sp]
+24.3 +10.5 42 +25 +30 комфорт 1014.6 1002.3
18 15.08 Ю 1 50 км ясно +22.0 +12.0 53 +24 +24 комфорт 1014.6 1002.2 +25.5
21 15.08 штиль 0 50 км ясно +16.3 +12.7 79 +16 +16 1016.0 1003.4
00 16.08 штиль 0 50 км ясно +13.4 +11.3 87 +13 +13 1016.3 1003.5
03 16.08 штиль 0 50 км 6/0
[Ac trans Ci sp]
+13.3 +11.8 91 +13 +13 1016.3 1003.5
06 16.08 штиль 0 50 км 9/1 1500 м
[Sc Ac As]
+15.2 +13.6 90 +15 +16 1017.5 1004.8 +12.8
09 16.08 СЗ 2 20 км слаб. дождь 10/4 1500 м
[Sc Ac As]
+18.0 +14.7 81 +19 +21 1018.8 1006.2
12 16.08 СВ 2 40 км в посл. час дождь 8/0
[Ac As]
+20.3 +15.1 72 +24 +30 комфорт 1018.2 1005.7 0.6
15 16.08 штиль 0 40 км 4/1 1200 м
[Cu med, cong Ci ing]
+23.6 +13.9 54 +26 +32 жарко 1016.8 1004.5
18 16.08 штиль 0 50 км 1/0
[Ac trans]
+21.7 +14.1 62 +25 +25 комфорт 1017.0 1004.6 +24.4 0.6
21 16.08 штиль 0 50 км 1/0
[Ac trans]
+16.1 +13.9 87 +16 +16 1018.1 1005.5
00 17.08 штиль 0 50 км ясно +13.6 +12.2 91 +13 +13 1018.3 1005.5
03 17.08 штиль 0 50 км ясно +12.7 +11.5 92 +12 +12 1017.7 1004.9
06 17.08 штиль 0 40 км 4/0
[Ci fib]
+15.2 +14.1 93 +15 +18 1018.3 1005.6 +12.1
09 17.08 штиль 0 50 км 8/0
[Ci sp]
+22.2 +15.9 67 +26 +40 душно 1017.8 1005.4
12 17.08 штиль 0 50 км 3/0
[Ci sp]
+25.5 +13.4 47 +28 +46 жарко 1016.3 1004.1
15 17.08 штиль 0 50 км 3/0
[Ci fib]
+27.7 +13.4 41 +29 +36 жарко 1015.0 1002.9
18 17.08 штиль 0 50 км 6/0
[Ci sp]
+23.5 +15.9 62 +27 +27 душно 1014.8 1002.5 +27.8
21 17.08 штиль 0 40 км 3/0
[Ci sp]
+18.5 +15.7 84 +19 +19 1015.4 1002.9
00 18.08 штиль 0 40 км 4/0
[Ci sp]
+15.3 +13.7 90 +15 +15 1015.7 1003.0
03 18.08 штиль 0 40 км 8/0
[Ac trans Ci sp]
+14.5 +13.1 91 +14 +14 1015.3 1002.6
06 18.08 штиль 0 40 км 1/0
[Ac trans]
+17.5 +16.0 91 +17 +21 1015.6 1003.1 +13.4
09 18.08 штиль 0 40 км ясно +25.6 +15.1 52 +28 +45 жарко 1015.3 1003.1
12 18.08 штиль 0 40 км ясно +29.3 +15.3 43 +32 +52 опасность
солнечного
удара
1014.5 1002.4
15 18.08 ЮЗ 3 40 км ясно +30.7 +17.4 45 +35 +39 очень
душно
1013.7 1001.7
18 18.08 Ю 1 40 км 4/0
[Ci sp]
+27.8 +18.6 57 +33 +33 очень
душно
1013.2 1001.1 +30.8
21 18.08 ЮЗ 2 40 км ясно +21.5 +18.2 81 +26 +26 душно 1014.2 1001.9
00 19.08 З 1 30 км 3/0
[Ci sp]
+18.5 +16.3 87 +20 +20 1014.7 1002.2
03 19.08 З 1 30 км ясно +16.4 +14.7 90 +17 +17 1014.8 1002.2

 

Местоположение метеостанции Загреб аэропорт (Хорватия): широта 45.73 долгота 16.07 высота над уровнем моря 107 м.

В архиве по умолчанию представлена погода в Загреб аэропорту за последнюю неделю. Архивные данные за месяц целиком и за предыдущие месяцы, начиная с января 2011 года, Вы можете получить, выбрав интересующий диапазон дат из раскрывающегося списка и нажав кнопку "Ввод!".


*Определитесь, кто Вы:
робот инопланетянин человек

Внимание! Время в таблицах - всемирное. Для получения местного времени необходимо прибавить поправку, которая равна 1 ч.

Смотрите также архив погоды в соседних городах и на ближайших метеорологических станциях:

Погода в Загребе (Хорватия) (10 км)
Погода в Загреб-Градеце (Хорватия) (12 км)
Погода в Пунтиярке (Хорватия) (23 км)
Погода в Сисаке (Хорватия) (35 км)
Погода в Карловаце (Хорватия) (47 км)
Погода в Церки-об-Крки (Словения) (47 км)
Погода в Крапине (Хорватия) (47 км)
Погода в Крижевцах (Хорватия) (50 км)
Погода в Бьеловаре (Хорватия) (61 км)
Погода в Вараздине (Хорватия) (68 км)

Пояснения к столбцам:

Ветер - указаны скорость ветра в м/с - средняя за 10 мин, порывы в срок и между сроками (в фигурных скобках) и направление, откуда дует ветер: С - северный, СВ - северо-восточный, В - восточный, ЮВ - юго-восточный, Ю - южный, ЮЗ - юго-западный, З - западный, СЗ - северо-западный.
Видимость - горизонтальная дальность видимости в метрах или километрах. При видимости от 1 до 10 км при отсутствии осадков обычно наблюдается дымка, при ухудшении видимости до 1 км и менее - туман. В сухую погоду видимость может ухудшаться дымом, пылью или мглою.
Явления - указаны атмосферные явления, наблюдавшиеся в срок или в последний час перед сроком; фигурными скобками обозначены явления, наблюдавшиеся между сроками (за 1-3 часа до срока); квадратными скобками обозначены град или гололедные отложения с указанием их диаметра в мм.
Облачность - указаны через наклонную черту общая и нижняя облачность в баллах и высота нижней границы облаков в метрах; квадратными скобками обозначены формы облаков: Ci - перистые, Cs - перисто-слоистые, Cc - перисто-кучевые, Ac - высококучевые, As - высокослоистые, Sc - слоисто-кучевые, Ns - слоисто-дождевые, Cu - кучевые, Cb - кучево-дождевые. Подробнее классификацию облаков см. в Атласе облаков (PDF).
T - Температура воздуха - температура, измеренная на высоте 2 м над землей.
Td - Температура точки росы - температура, при понижении до которой содержащийся в воздухе водяной пар достигнет насыщения.
f - Относительная влажность воздуха - влажноcть воздуха, измеренная на высоте 2 м над землей.
Te - Эффективная температура - температура, которую ощущает одетый по сезону человек в тени. Характеристика душности погоды. При расчете учитывается влияние влажности воздуха и скорости ветра на теплоощущения человека.
Tes - Эффективная температура на солнце - температура, которую ощущает человек, с поправкой на солнечный нагрев. Характеристика знойности погоды. Зависит от высоты солнца над горизонтом, облачности и скорости ветра. Ночью, в пасмурную погоду, а также при ветре 12 м/с и более поправка равна нулю.
P - Атмосферное давление - приведенное к уровню моря атмосферное давление.
Po - Атмосферное давление - измеренное на уровне метеостанции атмосферное давление.
Tmin - Минимальная температура - минимум температуры воздуха на высоте 2 м над землей.
Tmax - Максимальная температура - максимум температуры воздуха на высоте 2 м над землей.
R - Количество осадков - Количество выпавших осадков за период времени, мм. При наведении курсора мыши на число - период времени, за который выпало указанное количество осадков.
R24 - Количество осадков - Количество выпавших осадков за 24 часа, мм.
S - Снежный покров - Высота снежного покрова, см. При наведении курсора мыши на число - состояние снежного покрова и степень покрытия местности в баллах.